Date,TemperatureHighF,TemperatureAvgF,TemperatureLowF,DewpointHighF,DewpointAvgF,DewpointLowF,HumidityHigh,HumidityAvg,HumidityLow,PressureMaxIn,PressureMinIn,WindSpeedMaxMPH,WindSpeedAvgMPH,GustSpeedMaxMPH,PrecipitationSumIn
2012-1-1,73.3,61.4,53.1,60.8,54.9,49.4,93,80,62,28.52,20.37,13,3,13,0.00
2012-1-2,64.6,54.2,44.6,39.7,31.9,22.4,66,44,31,29.02,20.07,16,6,16,0.00
2012-1-3,51.3,40.2,33.1,22.6,18.3,14.8,52,42,30,31.50,20.05,24,6,24,0.00
2012-1-4,62.5,41.5,28.4,30.0,21.5,16.8,64,47,21,31.22,26.09,8,2,8,0.00
2012-1-5,71.6,51.4,37.8,49.5,39.0,24.3,86,64,40,30.11,26.51,16,4,16,0.00
2012-1-6,74.9,55.3,42.7,56.0,44.4,37.4,92,70,39,29.88,23.98,11,2,11,0.00
2012-1-7,77.8,57.5,49.9,60.3,50.8,46.2,92,80,45,30.07,23.09,9,2,9,0.00
2012-1-8,80.3,60.7,48.4,59.9,51.6,44.3,91,74,45,27.88,20.06,7,1,7,0.00
2012-1-9,80.8,62.6,52.0,62.4,54.0,47.9,91,75,49,28.61,21.39,8,2,8,0.00
2012-1-10,73.1,58.3,52.4,62.0,53.3,48.2,89,84,66,27.72,20.02,4,1,4,0.00
2012-1-11,72.2,63.3,58.0,59.9,54.5,50.0,87,73,58,28.54,20.01,22,7,22,0.00
2012-1-12,73.8,62.4,51.5,59.1,54.2,48.3,91,76,55,29.86,20.25,18,7,18,0.00
2012-1-13,64.4,50.0,41.6,55.3,29.8,21.3,73,47,29,29.99,23.54,16,5,16,0.00
2012-1-14,61.6,46.9,35.1,30.9,26.7,23.0,66,47,28,30.97,26.61,17,3,17,0.00
2012-1-15,72.7,51.3,41.0,39.8,33.5,28.3,77,54,23,31.10,24.89,15,3,15,0.00
2012-1-16,71.1,53.1,39.2,52.9,42.5,31.2,81,68,49,31.08,26.67,11,2,11,0.00
2012-1-17,78.8,60.7,47.3,57.9,50.5,42.8,87,71,46,30.75,26.25,14,3,14,0.00
2012-1-18,63.4,58.6,50.4,59.3,54.5,44.9,92,86,76,30.61,23.05,16,4,16,0.01
2012-1-19,72.0,52.0,38.9,46.7,37.8,22.3,82,62,21,30.87,20.22,10,2,10,0.00
2012-1-20,80.8,59.9,44.3,55.6,48.2,38.8,85,68,37,29.87,25.05,11,3,11,0.00
2012-1-21,74.3,63.6,55.1,59.1,55.2,49.8,87,75,59,30.11,23.15,12,5,12,0.04
2012-1-22,72.9,63.7,57.6,64.9,59.3,53.9,92,86,74,29.66,23.67,10,3,10,0.00
2012-1-23,84.6,67.3,59.9,66.9,60.0,57.2,93,79,48,28.68,23.21,12,3,12,0.00
2012-1-24,83.5,66.6,60.5,66.8,59.7,55.3,91,79,55,29.89,20.03,6,1,6,0.00
2012-1-25,81.5,66.0,56.9,69.7,59.6,52.8,90,81,62,30.40,20.01,8,1,8,0.00
2012-1-26,76.5,67.7,62.8,65.9,62.3,59.6,90,83,69,30.44,21.06,7,2,7,0.00
2012-1-27,76.1,66.4,54.9,64.2,56.6,46.6,92,72,45,30.31,20.30,18,7,18,0.00
2012-1-28,82.3,58.9,45.7,51.9,46.4,41.5,85,67,30,28.39,25.47,13,2,13,0.00
2012-1-29,73.8,55.3,45.4,53.0,44.0,38.9,82,68,42,28.75,27.53,16,3,16,0.00
2012-1-30,74.5,50.7,39.1,45.5,38.2,34.4,84,66,30,30.54,26.10,14,3,14,0.00
2012-1-31,79.4,56.1,41.4,58.3,46.9,35.6,86,73,46,30.05,29.31,12,2,12,0.00
2012-2-1,80.5,64.0,53.6,61.3,55.3,49.5,88,75,49,30.12,26.49,9,1,9,0.00
2012-2-2,85.9,64.2,58.3,63.8,57.8,53.0,87,80,47,30.81,25.83,8,2,8,0.00
2012-2-3,79.4,64.7,55.4,61.9,56.5,50.6,89,76,54,31.11,26.31,18,4,18,0.00
2012-2-4,79.7,66.8,58.1,63.4,58.7,54.3,90,76,53,30.67,25.53,11,2,11,0.00
2012-2-5,80.5,68.8,60.1,66.2,61.4,57.3,92,78,58,30.55,25.93,10,2,10,0.00
2012-2-6,66.8,62.4,58.5,60.9,57.8,54.5,89,85,80,30.55,20.59,15,6,15,0.00
2012-2-7,72.9,61.0,54.0,58.3,53.7,49.2,88,78,56,29.82,27.01,11,4,13,0.00
2012-2-8,79.4,59.1,50.0,52.9,49.1,46.3,89,72,35,29.43,27.04,10,2,10,0.00
2012-2-9,75.4,57.3,45.9,55.7,47.0,37.3,82,69,46,26.93,20.02,14,4,14,0.00
2012-2-10,73.6,62.2,54.4,63.0,56.2,50.4,89,81,69,26.56,24.85,10,2,10,0.02
2012-2-11,63.4,54.0,37.6,55.2,41.1,16.5,90,65,39,27.82,20.04,20,7,20,0.04
2012-2-12,60.1,39.5,27.9,24.3,17.9,12.2,68,43,22,31.44,26.99,17,4,18,0.00
2012-2-13,63.2,44.1,29.5,40.9,30.1,19.9,76,60,34,30.39,29.75,8,1,8,0.00
2012-2-14,68.0,55.8,40.9,57.4,48.4,35.0,91,77,59,30.20,27.42,11,2,11,0.05
2012-2-15,65.0,60.7,58.5,62.2,58.4,55.9,93,92,89,29.45,25.85,14,2,14,0.31
2012-2-16,76.0,65.8,58.0,64.8,60.2,55.9,94,83,64,29.42,24.68,13,3,13,0.00
2012-2-17,64.6,61.6,59.2,61.2,58.6,56.8,93,90,87,28.63,20.16,8,2,8,0.22
2012-2-18,72.5,63.2,58.0,64.9,59.4,55.6,94,87,74,25.67,20.01,8,2,8,0.00
2012-2-19,81.4,68.7,60.7,69.6,60.0,51.1,93,76,41,29.40,19.81,28,8,28,0.01
2012-2-20,66.1,54.6,50.9,51.4,44.2,40.4,77,68,48,30.53,20.01,18,5,18,0.00
2012-2-21,71.8,58.8,48.8,58.4,51.2,43.5,88,76,58,30.41,23.83,8,2,8,0.00
2012-2-22,74.5,63.9,52.2,63.2,57.2,49.1,90,80,59,25.42,20.18,16,4,16,0.09
2012-2-23,81.7,73.1,65.2,68.3,66.1,62.2,92,80,61,30.16,20.01,20,8,20,0.01
2012-2-24,83.2,73.9,61.6,68.7,64.8,49.7,85,74,57,30.67,20.43,25,10,25,0.00
2012-2-25,69.1,58.2,49.3,50.3,35.5,29.3,66,44,26,29.96,20.67,20,5,20,0.00
2012-2-26,59.4,53.1,47.5,53.1,45.1,35.7,89,75,59,28.08,27.40,14,4,14,0.00
2012-2-27,73.6,64.6,56.3,67.8,61.3,53.1,94,89,80,27.50,20.01,9,2,9,0.00
2012-2-28,77.2,64.7,61.4,67.7,60.6,57.3,92,87,69,25.23,20.06,11,3,11,0.00
2012-2-29,88.4,70.9,60.5,68.7,62.8,57.6,94,78,49,29.91,20.01,11,3,11,0.00
2012-3-1,78.8,71.3,66.8,66.4,63.9,61.7,88,78,62,30.75,20.01,16,7,18,0.00
2012-3-2,82.4,72.2,65.3,67.3,63.5,61.7,92,75,52,30.39,20.20,13,5,13,0.00
2012-3-3,85.3,74.4,67.7,71.0,65.8,60.8,91,76,51,30.33,20.67,32,9,32,0.00
2012-3-4,73.6,57.1,48.6,66.4,44.3,30.8,91,66,29,29.58,20.80,22,7,22,0.00
2012-3-5,79.9,61.0,45.7,44.9,38.6,32.0,67,46,24,27.20,20.53,19,5,19,0.00
2012-3-6,74.3,60.8,49.5,54.4,46.2,36.1,71,59,47,26.22,14.55,16,3,16,0.00
2012-3-7,77.2,68.5,63.7,59.4,56.1,51.3,80,65,44,26.39,20.01,10,2,10,0.00
2012-3-8,83.5,69.4,58.9,69.0,61.3,54.4,88,77,51,25.27,20.01,10,1,10,0.00
2012-3-9,87.1,71.4,62.5,68.1,62.9,59.2,91,76,47,26.85,15.07,18,3,18,0.00
2012-3-10,69.5,63.9,60.5,59.6,55.3,51.5,84,74,60,26.26,11.56,22,10,22,0.00
2012-3-11,77.4,67.9,61.7,61.7,58.5,55.8,87,73,55,26.65,18.19,12,3,13,0.00
2012-3-12,66.2,65.5,65.0,57.5,56.8,56.3,75,74,71,22.72,17.66,3,0,3,0.00
2012-3-13,69.5,67.7,66.6,61.9,61.2,60.5,82,80,75,23.85,20.01,1,0,1,0.00
2012-3-14,84.2,70.1,61.9,67.8,61.1,57.7,88,74,49,24.43,18.40,8,1,8,0.00
2012-3-15,84.4,70.8,59.8,71.3,62.1,55.9,88,75,52,27.91,20.02,9,1,9,0.00
2012-3-16,84.8,71.3,60.8,69.0,61.8,57.3,89,74,43,28.04,20.01,8,2,8,0.00
2012-3-17,85.3,71.4,61.9,67.5,61.9,57.2,89,74,50,27.06,20.01,10,2,10,0.00
2012-3-18,85.0,71.6,60.5,67.2,60.9,52.0,88,71,35,28.95,20.01,8,2,8,0.00
2012-3-19,85.3,72.1,62.3,67.2,61.8,58.1,87,72,46,26.73,20.01,8,2,8,0.00
2012-3-20,83.9,71.9,63.4,69.6,62.7,58.8,88,74,51,26.29,19.20,12,2,12,0.00
2012-3-21,83.2,72.1,65.2,68.8,65.2,60.6,89,79,61,26.88,16.50,9,2,9,0.00
2012-3-22,72.4,68.2,67.0,68.0,64.6,63.5,91,88,84,22.46,18.40,5,0,5,0.00
2012-3-23,89.6,76.3,66.8,69.5,66.4,63.7,91,73,49,22.72,19.03,11,4,11,0.00
2012-3-24,78.3,69.7,65.2,69.8,65.4,60.8,93,87,67,28.92,17.57,15,4,15,0.00
2012-3-25,81.4,71.6,63.4,64.5,53.7,47.4,88,55,34,26.43,20.02,17,6,17,0.00
2012-3-26,83.7,67.3,57.2,60.1,54.0,48.2,83,63,44,25.70,16.77,8,1,8,0.00
2012-3-27,83.2,69.3,58.5,67.3,60.6,54.6,88,75,53,24.70,16.15,19,4,19,0.00
2012-3-28,86.8,69.7,58.7,66.9,61.2,55.4,90,76,50,24.20,17.81,10,2,10,0.00
2012-3-29,87.5,74.3,66.1,65.2,61.1,57.1,87,66,39,22.09,17.76,12,3,12,0.00
2012-3-30,87.7,73.9,62.3,65.8,61.9,56.7,85,68,44,12.19,12.19,10,2,10,0.00
2012-3-31,74.5,68.5,64.6,67.7,63.8,60.8,93,85,75,14.35,13.02,14,4,14,0.00
2012-4-1,90.0,73.2,62.1,67.8,63.2,59.7,93,74,38,14.78,13.05,12,3,12,0.00
2012-4-2,92.3,78.2,66.6,68.3,63.2,57.9,91,63,33,29.99,14.78,14,4,14,0.00
2012-4-3,84.2,76.0,68.4,68.8,65.6,61.7,84,71,58,26.93,14.21,14,2,14,0.00
2012-4-4,89.5,76.2,67.5,68.2,65.1,62.9,90,71,46,27.19,20.19,15,4,15,0.00
2012-4-5,73.8,73.0,71.8,63.4,62.7,61.6,71,70,68,23.75,21.25,10,6,10,0.00
2012-4-6,79.7,69.3,61.7,65.1,60.8,52.3,88,75,47,29.89,21.25,25,7,25,0.00
2012-4-7,80.8,71.2,59.0,53.8,50.3,46.6,69,49,36,26.99,20.05,23,6,23,0.00
2012-4-8,79.9,65.7,52.4,58.9,50.6,45.3,85,62,32,28.86,20.01,9,2,9,0.00
2012-4-9,87.5,70.2,59.6,63.2,57.9,53.8,83,67,43,27.98,20.16,11,3,11,0.00
2012-4-10,83.7,71.5,60.8,62.8,54.8,47.7,84,59,32,26.79,20.30,11,3,11,0.00
2012-4-11,85.3,71.3,60.1,59.3,52.2,45.1,76,54,32,27.42,22.56,16,4,16,0.00
2012-4-12,70.6,65.0,60.5,55.3,48.1,44.1,61,54,49,25.12,20.35,11,3,11,0.00
2012-4-13,81.0,72.5,64.1,63.5,59.2,54.2,82,63,51,28.82,20.13,17,6,17,0.00
2012-4-14,82.3,71.2,64.6,65.7,60.5,55.2,82,70,51,25.83,20.67,12,3,12,0.00
2012-4-15,84.8,73.4,66.4,64.2,60.6,56.5,80,66,40,26.25,21.04,13,2,13,0.00
2012-4-16,85.5,73.8,64.8,65.3,61.5,57.6,80,67,47,25.13,22.85,10,2,10,0.00
2012-4-17,85.7,74.3,64.8,66.0,62.5,59.3,86,68,42,27.90,22.86,10,3,10,0.00
2012-4-18,86.4,74.7,67.1,66.1,63.0,59.1,81,68,42,28.46,22.26,17,4,17,0.00
2012-4-19,81.0,72.6,66.6,70.6,66.2,63.3,90,81,65,25.61,22.19,14,2,14,0.00
2012-4-20,86.0,75.6,69.3,71.5,67.2,61.7,91,76,52,25.27,22.10,11,2,11,0.00
2012-4-21,79.4,72.6,66.2,70.0,66.1,62.9,91,80,66,27.46,21.71,14,3,14,0.00
2012-4-22,77.8,68.4,63.4,66.5,61.5,45.7,93,80,52,26.30,22.45,16,5,16,0.00
2012-4-23,70.6,60.9,52.6,46.6,42.4,39.0,69,52,34,26.48,24.23,19,6,19,0.00
2012-4-24,74.7,60.4,47.2,44.4,39.5,34.8,63,48,30,29.44,22.10,16,5,16,0.00
2012-4-25,85.0,69.1,54.7,56.1,50.1,43.9,73,53,34,30.07,21.27,17,6,17,0.00
2012-4-26,89.8,74.0,59.4,62.9,56.7,52.5,85,58,32,30.13,20.18,17,6,17,0.00
2012-4-27,91.8,74.5,64.4,68.7,62.6,55.9,90,69,38,28.34,20.07,12,4,12,0.00
2012-4-28,89.6,76.7,65.2,69.4,64.1,57.2,86,67,36,27.87,20.14,8,2,8,0.00
2012-4-29,87.8,77.2,69.3,72.4,67.8,61.6,90,74,49,28.57,21.92,8,2,8,0.00
2012-4-30,86.4,76.5,68.0,72.0,68.5,64.2,89,77,59,28.92,20.45,9,2,10,0.00
2012-5-1,86.2,77.4,70.6,70.8,68.4,66.6,91,75,57,28.45,21.30,9,2,9,0.00
2012-5-2,86.8,77.2,70.0,71.7,68.7,65.8,88,76,59,30.05,23.82,9,2,9,0.00
2012-5-3,86.4,77.0,69.1,71.4,67.7,64.9,89,74,57,30.52,29.01,10,2,10,0.00
2012-5-4,92.0,81.6,71.6,73.3,69.1,66.1,87,67,49,30.60,30.42,8,3,8,0.00
2012-5-5,95.0,81.6,71.3,71.5,67.8,63.9,84,65,38,30.63,30.45,11,4,11,0.00
2012-5-6,94.0,78.8,71.5,72.0,66.7,62.1,85,68,39,30.56,30.33,20,4,20,0.00
2012-5-7,86.8,76.6,71.6,75.2,69.6,66.9,87,79,61,30.38,29.80,15,3,15,0.00
2012-5-8,87.7,76.3,69.5,73.6,69.1,65.7,89,79,61,30.10,26.86,8,1,10,0.00
2012-5-9,87.7,76.2,68.9,72.1,67.8,65.3,90,76,54,30.28,28.57,16,4,16,0.00
2012-5-10,82.6,72.4,63.4,67.8,61.6,57.5,89,71,45,30.72,30.19,14,3,14,0.00
2012-5-11,85.7,73.2,63.0,66.2,60.6,56.9,90,67,42,30.98,24.97,11,2,11,0.00
2012-5-12,84.4,76.4,70.6,63.4,60.4,57.2,70,58,46,30.41,28.41,15,2,15,0.00
2012-5-13,82.6,75.4,68.8,68.4,64.6,59.3,80,70,57,30.44,29.27,12,2,12,0.00
2012-5-14,88.0,75.2,68.8,76.0,68.1,64.4,91,79,58,30.45,30.14,14,4,14,0.00
2012-5-15,87.5,74.7,67.3,75.1,69.4,64.0,92,84,59,30.35,29.68,13,3,34,0.00
2012-5-16,79.6,74.5,70.6,70.0,68.0,64.5,91,80,62,30.22,25.52,11,4,11,0.00
2012-5-17,85.7,74.3,67.3,71.6,67.3,62.8,90,79,60,29.44,27.77,24,3,24,0.00
2012-5-18,79.6,70.2,65.5,72.2,66.2,62.8,93,88,73,29.69,24.84,14,4,14,0.00
2012-5-19,82.6,72.9,65.9,69.0,64.9,58.1,93,77,55,28.76,21.78,18,5,18,0.00
2012-5-20,80.3,69.1,60.5,63.2,58.6,54.6,84,70,51,29.13,28.57,19,4,19,0.00
2012-5-21,87.8,74.2,64.8,71.8,65.3,57.9,89,75,56,28.74,24.49,13,3,13,0.00
2012-5-22,89.5,78.0,69.8,68.4,65.7,61.1,86,68,47,29.17,25.18,14,5,14,0.00
2012-5-23,89.3,78.5,69.5,72.7,68.2,61.6,87,72,50,29.50,24.23,13,3,13,0.00
2012-5-24,88.9,80.2,72.9,75.4,71.7,68.5,89,76,58,28.95,25.37,13,2,13,0.00
2012-5-25,89.6,79.4,72.0,74.8,70.4,66.4,90,75,51,29.48,28.23,18,4,18,0.00
2012-5-26,92.5,79.9,69.7,73.2,68.4,65.4,87,70,45,29.66,29.03,19,3,19,0.00
2012-5-27,85.3,76.8,71.5,74.2,69.5,66.1,92,78,66,29.61,29.26,38,11,38,0.00
2012-5-28,84.6,74.9,70.9,75.3,70.7,68.6,95,87,67,29.39,21.38,31,6,31,0.00
2012-5-29,80.8,74.3,71.1,74.0,71.1,68.2,94,90,79,26.89,23.99,24,9,24,0.00
2012-5-30,92.7,80.3,73.8,75.8,72.7,70.7,93,79,52,28.07,20.08,12,4,12,0.00
2012-5-31,91.4,78.8,72.7,77.5,71.4,67.0,90,79,59,28.56,24.17,14,3,14,0.00
2012-6-1,84.6,77.6,73.1,74.2,71.1,69.2,91,80,67,28.94,24.69,14,7,14,0.00
2012-6-2,88.9,79.5,71.5,72.0,66.9,59.8,89,68,39,29.08,23.72,16,5,16,0.00
2012-6-3,91.6,78.6,67.0,68.6,62.6,57.8,74,59,41,29.10,27.90,11,2,11,0.00
2012-6-4,93.8,82.9,73.1,71.1,66.8,59.0,86,61,34,29.16,28.99,16,6,16,0.00
2012-6-5,91.6,79.7,70.7,75.1,71.0,66.9,91,76,49,29.38,29.04,16,4,16,0.00
2012-6-6,85.9,76.8,70.4,73.1,70.9,67.6,92,83,62,29.42,29.29,20,6,20,0.00
2012-6-7,84.4,74.2,72.0,77.3,71.4,69.6,94,91,78,29.51,29.39,22,2,22,0.00
2012-6-8,78.1,73.5,70.6,71.1,69.5,67.2,94,88,74,29.45,28.12,12,4,12,0.00
2012-6-9,81.0,75.8,73.1,75.1,71.0,67.9,93,85,78,28.20,27.99,6,2,6,0.00
2012-6-10,87.3,77.4,73.3,79.5,74.4,71.1,95,91,75,28.22,28.03,15,1,15,0.00
2012-6-11,90.0,79.2,72.9,78.5,73.3,69.8,92,83,65,29.54,28.13,7,3,7,0.00
2012-6-12,90.4,76.1,73.1,76.0,71.4,68.7,90,86,60,29.60,29.43,10,4,10,0.00
2012-6-13,90.4,81.9,74.9,78.1,74.6,71.1,89,79,62,29.48,29.21,9,2,9,0.00
2012-6-14,86.8,80.8,75.8,76.2,74.4,72.4,89,81,70,29.57,29.45,13,3,13,0.00
2012-6-15,82.1,79.2,73.6,69.9,67.1,59.5,83,67,57,29.74,29.56,21,8,21,0.00
2012-6-16,78.1,75.9,74.5,69.1,67.9,66.9,77,76,74,29.79,29.69,12,5,12,0.00
2012-6-18,85.5,75.9,70.2,64.5,63.8,63.0,82,68,47,29.87,29.73,7,3,7,0.00
2012-6-19,86.8,77.4,67.1,71.8,68.5,62.8,87,75,58,30.04,29.72,8,3,8,0.00
2012-6-20,86.6,80.1,72.4,71.7,69.1,67.6,85,70,58,30.00,21.45,12,3,12,0.00
2012-6-21,80.6,76.2,74.5,70.0,67.8,66.9,78,75,70,30.29,29.11,4,1,4,0.00
2012-6-22,87.5,80.3,74.3,77.0,73.7,70.6,88,81,69,29.94,29.02,6,2,6,0.00
2012-6-23,88.0,80.5,74.9,79.2,74.4,70.8,90,82,67,30.03,29.90,13,3,13,0.00
2012-6-24,81.9,77.7,72.4,77.1,73.7,69.1,94,88,78,30.16,29.96,18,2,18,0.00
2012-6-25,86.0,77.6,73.1,78.1,74.2,70.0,95,89,75,30.27,30.16,26,5,26,0.00
2012-6-26,82.4,75.8,72.4,79.0,73.8,70.2,95,94,85,30.23,20.35,22,4,22,0.00
2012-6-27,84.2,75.7,70.2,72.6,68.6,63.9,94,80,57,26.33,21.68,26,7,26,0.00
2012-6-28,91.3,78.4,66.6,70.0,66.3,63.2,89,69,43,27.42,21.64,8,1,8,0.00
2012-6-29,93.1,80.6,72.7,73.6,69.1,65.7,85,69,48,27.70,27.21,13,5,13,0.00
2012-6-30,95.9,87.4,75.6,79.5,76.2,71.6,89,70,56,27.92,27.19,12,5,12,0.00
2012-7-1,96.1,87.3,77.2,79.9,75.7,72.0,85,69,57,29.20,27.50,24,4,24,0.00
2012-7-2,93.1,83.1,74.3,79.0,73.4,69.5,88,74,57,29.56,29.18,28,3,28,0.00
2012-7-3,96.1,84.4,76.0,78.0,73.1,68.9,84,70,47,29.62,29.45,8,2,8,0.00
2012-7-4,93.2,82.2,76.7,77.3,73.8,68.4,88,76,56,29.66,29.36,15,3,15,0.00
2012-7-5,94.7,83.6,75.1,76.8,73.9,71.6,90,74,52,29.62,28.93,10,4,10,0.00
2012-7-6,95.8,85.4,77.4,77.1,74.0,70.4,87,70,48,29.99,28.77,12,4,12,0.00
2012-7-7,94.0,83.9,76.0,78.9,74.1,69.8,85,73,53,30.18,28.39,12,3,12,0.00
2012-7-8,96.5,86.2,78.8,77.7,74.6,71.0,85,70,48,29.77,28.58,12,3,12,0.00
2012-7-9,96.3,86.4,77.8,78.7,74.7,72.2,85,69,48,29.86,29.53,12,3,12,0.00
2012-7-10,82.4,80.4,78.7,73.8,72.8,71.8,85,78,73,29.86,29.84,6,3,6,0.00
2012-7-11,87.5,80.1,77.0,75.6,71.8,69.9,83,76,68,30.47,29.82,4,2,4,0.00
2012-7-12,91.3,81.7,74.2,77.3,73.3,69.6,88,76,61,30.55,30.47,10,2,10,0.00
2012-7-13,90.9,84.9,77.8,77.6,74.8,72.8,86,72,59,30.72,28.40,9,2,9,0.00
2012-7-14,91.1,85.0,78.5,77.1,74.3,72.4,84,71,58,29.66,28.49,9,2,9,0.00
2012-7-15,80.3,80.3,80.3,72.8,72.8,72.8,78,78,78,29.59,29.59,0,0,0,0.00
2012-7-17,77.6,77.4,77.0,71.3,71.2,70.7,81,81,81,29.12,29.11,5,2,5,0.00
2012-7-18,89.5,78.3,74.9,76.2,72.4,70.7,90,83,64,30.83,29.11,10,4,10,0.00
2012-7-19,86.0,78.7,74.5,76.9,74.0,71.1,92,85,74,31.19,29.38,8,4,8,0.00
2012-7-20,84.6,80.1,77.0,74.3,73.6,72.6,91,81,69,31.14,28.04,8,3,8,0.00
2012-7-21,88.9,79.0,75.6,77.9,73.4,71.5,87,83,70,28.20,28.02,8,1,8,0.00
2012-7-22,92.9,86.1,77.9,78.5,75.7,70.2,89,72,52,28.80,28.04,9,3,9,0.00
2012-7-23,91.4,83.3,76.5,77.5,74.4,71.5,88,75,60,29.98,28.25,7,3,7,0.00
2012-7-24,91.8,83.1,74.7,76.9,73.0,70.3,87,73,59,30.05,29.82,9,3,9,0.00
2012-7-25,89.6,79.5,76.3,78.2,73.6,72.5,89,82,69,30.10,29.94,9,3,9,0.00
2012-7-26,90.4,82.1,78.3,78.4,75.8,73.8,89,82,68,30.01,29.95,6,3,6,0.00
2012-7-27,94.7,86.9,77.0,76.9,74.9,74.0,90,69,52,30.85,30.07,9,3,9,0.00
2012-7-28,94.1,84.7,81.7,76.8,75.3,74.2,80,74,57,30.62,30.44,6,4,6,0.00
2012-7-29,94.5,84.8,78.8,78.1,75.7,73.3,89,75,56,30.65,30.38,10,4,10,0.00
2012-7-30,89.5,78.1,72.5,77.8,72.9,69.5,91,84,67,30.67,26.71,11,5,11,0.00
2012-7-31,91.1,79.7,75.8,78.4,74.2,71.5,92,84,63,28.13,25.70,12,4,12,0.00
2012-8-1,93.6,81.2,75.2,77.6,74.5,72.5,92,81,59,28.03,26.59,12,4,12,0.00
2012-8-2,95.6,83.0,76.1,78.9,75.5,70.5,91,79,53,30.29,26.46,9,3,9,0.00
2012-8-3,92.3,81.8,73.3,78.0,73.4,69.8,91,76,59,30.34,30.23,11,2,11,0.00
2012-8-4,87.7,79.9,75.6,77.3,73.8,71.7,92,82,67,30.39,26.83,12,2,12,0.00
2012-8-5,88.2,78.4,74.0,79.4,74.6,72.2,94,88,71,30.05,26.74,8,2,8,0.00
2012-8-6,90.9,84.2,77.2,79.0,76.5,73.1,91,78,65,28.13,26.13,8,3,8,0.00
2012-8-7,91.3,80.0,73.8,77.8,73.8,70.4,91,82,60,28.07,27.71,17,4,17,0.00
2012-8-8,87.5,78.5,75.6,79.2,74.4,72.4,92,87,72,27.99,27.41,10,3,10,0.00
2012-8-9,93.6,83.6,76.7,78.8,74.6,72.7,90,75,56,28.60,25.14,11,4,11,0.00
2012-8-10,94.5,84.3,76.9,78.7,74.5,70.4,89,73,52,27.52,26.56,12,4,12,0.00
2012-8-11,93.8,81.7,77.4,79.9,73.9,70.1,85,78,56,28.17,26.47,8,2,8,0.00
2012-8-12,87.7,79.8,76.0,77.7,74.0,71.8,88,83,69,28.29,28.04,9,3,9,0.00
2012-8-13,94.1,85.9,77.8,78.2,74.2,68.2,89,69,50,28.27,28.09,8,1,8,0.00
2012-8-14,92.7,81.2,72.7,78.5,72.8,67.6,87,76,54,28.17,28.00,11,2,11,0.00
2012-8-15,80.5,78.7,77.8,73.8,72.8,71.5,86,82,78,28.12,27.95,4,2,4,0.00
2012-8-16,93.1,80.5,70.9,78.3,74.2,67.9,91,82,58,28.06,27.88,18,3,18,0.00
2012-8-17,88.6,78.5,72.9,78.4,72.8,69.0,92,83,69,27.93,27.71,24,3,24,0.00
2012-8-18,93.1,82.7,75.8,76.3,73.9,71.9,90,76,55,27.97,27.57,8,3,8,0.00
2012-8-19,89.6,79.0,75.4,77.6,74.1,71.8,91,85,64,28.89,25.14,10,3,10,0.00
2012-8-20,90.2,77.5,73.1,78.7,73.4,70.3,93,87,64,28.32,24.70,13,4,13,0.00
2012-8-21,79.6,73.2,70.6,74.5,70.5,67.8,93,91,83,28.02,26.05,10,3,10,0.00
2012-8-22,83.5,77.5,71.5,76.4,72.8,68.7,92,85,73,28.29,25.58,6,2,7,0.00
2012-8-23,87.1,77.2,70.6,75.2,71.7,66.2,93,84,63,28.04,26.38,12,4,12,0.00
2012-8-24,92.5,77.1,68.0,75.8,69.6,65.3,91,79,55,28.13,26.81,8,2,8,0.00
2012-8-25,91.1,78.2,72.0,75.8,71.2,68.9,91,80,59,27.85,25.08,16,3,16,0.00
2012-8-26,86.4,79.1,73.4,75.4,71.9,68.0,89,79,67,27.97,22.47,22,5,22,0.00
2012-8-27,81.4,77.9,76.1,76.6,74.6,72.7,92,89,80,29.07,22.66,10,3,10,0.00
2012-8-28,94.3,80.9,75.2,82.5,75.5,72.0,93,84,63,29.98,27.48,18,3,18,0.00
2012-8-29,89.8,78.5,74.2,79.0,74.1,71.4,93,87,68,29.72,28.71,12,3,12,0.00
2012-8-30,93.6,81.0,74.3,81.5,76.1,72.2,94,86,65,29.26,27.98,6,1,6,0.00
2012-8-31,89.6,82.3,77.4,79.4,76.6,74.9,93,83,69,28.20,24.25,8,1,8,0.00
2012-9-1,96.7,83.2,75.6,79.2,75.2,71.4,92,78,54,27.65,25.96,6,1,6,0.00
2012-9-2,97.4,83.2,75.8,79.8,74.5,70.6,92,76,52,27.43,25.50,8,2,8,0.00
2012-9-3,95.9,82.8,75.4,77.9,72.7,69.9,87,72,50,26.57,25.89,8,2,8,0.00
2012-9-4,95.8,82.2,75.2,77.3,73.2,70.0,87,75,51,26.87,26.21,9,2,9,0.00
2012-9-5,95.2,82.9,74.5,79.9,74.5,71.1,91,77,54,26.71,24.64,8,1,8,0.00
2012-9-6,95.2,80.8,75.2,78.2,73.9,71.0,92,80,55,29.07,24.50,8,2,8,0.00
2012-9-7,79.2,78.7,76.7,74.5,73.8,72.9,89,85,83,29.37,29.07,7,2,7,0.00
2012-9-8,91.8,80.9,75.8,78.4,74.8,72.7,91,82,57,29.86,29.08,11,2,11,0.00
2012-9-9,90.7,81.8,76.9,78.5,74.9,70.0,92,80,64,30.61,29.79,10,3,10,0.00
2012-9-10,91.6,80.0,72.4,74.3,68.7,63.6,89,70,48,30.75,30.58,18,3,18,0.00
2012-9-11,91.6,80.3,72.7,70.5,66.1,62.8,73,63,45,30.85,30.67,15,4,15,0.00
2012-9-12,77.8,76.2,72.9,70.2,67.8,67.1,88,75,71,30.86,30.80,10,4,10,0.00
2012-9-13,78.3,73.2,71.6,73.1,70.3,68.9,92,90,84,30.62,30.58,11,3,11,0.00
2012-9-14,89.8,78.5,72.2,79.4,72.7,69.4,94,83,63,30.73,30.56,11,3,11,0.00
2012-9-15,88.7,79.4,72.7,77.4,72.1,69.7,91,79,62,30.77,30.54,15,3,15,0.00
2012-9-16,93.6,82.0,71.6,78.6,72.9,68.6,92,75,55,30.67,30.49,9,1,9,0.00
2012-9-17,95.0,80.6,73.1,77.7,72.7,69.3,90,78,53,30.51,30.17,10,1,10,0.00
2012-9-18,79.6,76.1,71.8,74.4,72.3,69.0,92,88,80,30.19,30.07,13,4,13,0.00
2012-9-19,91.8,79.5,73.4,76.5,72.6,70.4,93,80,55,30.31,30.14,9,2,9,0.00
2012-9-20,85.0,76.3,72.7,78.7,72.2,69.9,92,87,74,30.33,30.26,11,2,11,0.00
2012-9-21,88.7,78.0,72.0,79.0,72.4,69.6,93,83,65,30.30,30.22,10,3,10,0.00
2012-9-22,94.3,80.9,73.8,78.6,71.9,68.9,90,75,52,30.30,30.23,6,1,6,0.00
2012-9-23,94.3,80.4,69.7,77.5,68.4,59.3,92,70,41,30.34,30.26,9,2,9,0.00
2012-9-24,95.8,76.5,63.0,68.4,60.7,56.3,81,61,32,30.53,30.30,11,2,11,0.00
2012-9-25,89.6,78.5,72.0,72.0,66.8,64.0,77,68,52,30.69,30.47,16,5,16,0.00
2012-9-26,92.5,78.0,69.5,78.3,70.4,63.8,89,78,58,30.68,30.58,8,2,8,0.00
2012-9-27,92.9,79.8,73.1,78.2,71.9,67.9,92,78,56,30.64,30.54,14,2,14,0.00
2012-9-28,95.2,80.6,71.1,79.6,71.7,67.2,90,76,52,30.56,30.46,9,2,9,0.00
2012-9-29,94.7,80.2,69.1,79.1,69.9,66.1,90,73,45,30.49,30.34,8,1,8,0.00
2012-9-30,93.6,79.6,72.5,78.7,72.8,68.7,93,81,58,30.38,30.17,7,2,7,0.00
2012-10-1,95.0,80.1,72.7,82.5,74.1,70.3,94,83,58,30.20,30.10,10,3,10,0.00
2012-10-2,79.9,78.9,76.5,73.4,72.9,71.6,90,82,78,30.33,30.13,6,3,6,0.00
2012-10-3,85.5,77.3,74.2,75.4,71.8,69.4,92,83,67,30.46,30.33,16,2,16,0.00
2012-10-4,93.6,76.3,72.7,82.7,72.6,69.7,94,89,66,30.51,30.41,6,1,6,0.00
2012-10-5,90.7,77.9,73.1,83.0,74.1,70.9,94,88,70,30.44,30.31,10,2,10,0.00
2012-10-6,88.4,77.8,73.8,77.9,72.1,70.7,91,83,70,30.31,30.22,3,1,3,0.00
2012-10-7,94.0,80.1,71.3,78.5,72.5,68.9,93,79,54,30.44,30.28,7,2,7,0.00
2012-10-8,86.6,76.7,69.5,78.4,72.1,66.7,91,86,64,30.47,30.39,11,2,11,0.00
2012-10-9,69.5,65.4,62.1,66.7,62.0,59.0,91,89,86,30.71,30.24,12,3,12,0.00
2012-10-10,90.0,69.4,58.0,71.1,62.3,55.6,93,80,51,30.23,23.76,10,1,10,0.00
2012-10-11,85.9,68.4,63.7,65.7,61.3,59.6,89,79,50,28.93,26.30,8,1,8,0.00
2012-10-12,90.7,75.6,63.9,72.3,63.8,60.0,88,69,44,29.94,26.94,10,2,10,0.00
2012-10-13,88.6,76.3,66.6,69.8,66.1,61.9,86,72,50,30.52,24.92,14,4,14,0.00
2012-10-14,87.1,75.4,69.3,74.1,69.1,65.3,92,81,63,30.93,20.52,11,1,11,0.00
2012-10-15,87.3,76.0,68.8,76.0,68.8,65.7,91,79,58,29.31,21.38,9,1,9,0.00
2012-10-16,87.3,72.7,61.6,67.8,60.9,54.8,82,68,46,29.34,20.01,13,1,13,0.00
2012-10-17,86.0,70.0,62.3,71.4,62.7,56.9,87,78,57,25.25,19.97,10,1,10,0.00
2012-10-18,90.7,75.5,67.1,73.2,67.9,63.1,92,79,51,29.60,21.39,6,1,6,0.00
2012-10-19,74.7,71.9,70.9,67.3,66.0,65.0,85,82,75,27.40,20.28,5,2,5,0.00
2012-10-20,86.6,75.9,60.7,59.8,53.1,46.5,79,47,31,30.58,14.17,9,3,9,0.00
2012-10-21,88.6,70.4,56.0,62.4,55.9,49.7,83,63,38,30.81,30.57,12,3,12,0.00
2012-10-22,87.8,72.2,62.3,67.9,60.3,57.1,86,68,45,30.80,28.95,18,4,18,0.00
2012-10-23,90.7,74.5,63.2,73.0,63.5,56.9,88,71,45,30.46,20.05,13,4,13,0.00
2012-10-24,70.9,67.3,65.7,65.4,62.9,62.0,88,86,83,28.92,20.11,4,2,4,0.00
2012-10-25,77.4,75.5,74.7,69.3,68.7,67.4,81,79,75,27.50,11.92,13,5,13,0.00
2012-10-26,76.7,74.3,70.7,70.3,66.8,60.8,86,77,70,28.09,23.47,27,11,27,0.00
2012-10-27,72.2,69.0,66.2,63.5,61.6,59.7,84,77,72,27.03,23.55,19,7,19,0.00
2012-10-28,79.2,68.2,59.0,60.4,56.6,49.9,79,67,49,25.34,12.22,14,4,14,0.00
2012-10-29,68.0,57.3,47.9,50.2,42.1,34.8,78,58,36,27.49,23.45,16,6,16,0.00
2012-10-30,66.1,54.0,44.5,36.3,33.6,30.7,61,47,30,28.29,23.47,18,7,18,0.00
2012-10-31,73.1,59.2,47.5,49.5,41.0,34.7,66,52,36,29.56,25.94,16,6,16,0.00
2012-11-1,78.3,63.3,54.5,53.4,47.8,41.9,84,60,32,28.31,23.21,12,4,12,0.00
2012-11-2,79.9,63.0,46.6,52.9,45.3,40.3,80,56,30,25.50,24.27,12,2,12,0.00
2012-11-3,92.5,69.1,57.4,65.4,57.0,52.7,92,68,35,26.45,23.88,9,2,9,0.00
2012-11-4,87.5,71.0,60.1,69.2,59.7,55.8,90,70,40,27.07,20.02,12,4,12,0.00
2012-11-5,84.2,67.1,55.6,62.2,56.5,50.1,90,72,34,27.24,25.28,11,3,12,0.00
2012-11-6,77.9,62.4,54.4,61.3,54.1,49.1,89,75,50,28.26,27.24,12,2,12,0.00
2012-11-7,69.3,54.5,44.8,49.1,44.9,40.0,85,71,44,28.25,26.34,12,3,12,0.00
2012-11-8,78.5,56.5,43.9,52.9,45.6,40.6,88,70,37,28.27,24.54,13,3,13,0.00
2012-11-9,82.3,58.8,42.8,56.3,44.7,38.5,85,64,27,28.50,27.90,7,1,7,0.00
2012-11-10,84.1,62.8,45.9,60.5,50.6,40.9,84,67,39,28.60,27.32,9,2,9,0.00
2012-11-11,85.0,68.9,57.4,68.9,59.1,53.2,88,73,45,28.85,27.01,10,2,10,0.00
2012-11-12,78.8,68.8,63.7,70.5,63.5,59.7,91,83,69,30.15,24.70,8,1,8,0.00
2012-11-13,85.0,68.8,60.8,71.9,63.0,58.0,91,82,58,29.78,22.26,13,1,13,0.00
2012-11-14,64.8,59.6,57.6,60.6,56.7,54.5,91,90,86,27.15,22.91,18,10,18,0.00
2012-11-15,63.2,55.7,51.1,56.1,52.0,48.5,92,88,76,29.41,25.91,13,5,13,0.00
2012-11-16,56.5,53.2,50.4,52.0,49.5,47.3,90,87,84,29.38,29.27,14,5,14,0.00
2012-11-17,61.0,57.0,53.8,56.2,52.3,49.0,88,84,79,29.42,29.25,20,10,20,0.00
2012-11-18,81.2,61.6,52.9,61.0,52.6,48.5,85,74,46,29.39,29.30,18,4,18,0.00
2012-11-19,58.0,57.4,56.9,53.7,52.9,50.9,87,85,78,29.38,29.32,6,1,6,0.00
2012-11-20,81.4,62.9,54.0,62.5,54.2,50.2,87,75,46,29.37,29.27,11,1,11,0.00
2012-11-21,79.0,61.8,51.5,59.2,50.9,45.7,87,70,39,29.37,29.27,14,2,14,0.00
2012-11-22,79.9,57.3,46.6,48.9,43.7,39.3,82,64,30,30.08,29.26,17,3,17,0.00
2012-11-23,80.3,58.1,43.2,51.2,43.9,37.7,81,63,32,30.38,28.72,9,1,9,0.00
2012-11-24,75.1,59.2,47.9,49.5,43.6,34.3,81,59,32,29.84,28.97,10,3,10,0.00
2012-11-25,78.1,53.3,37.8,43.0,33.7,27.6,78,51,19,31.28,29.80,7,2,7,0.00
2012-11-26,81.0,55.5,39.8,52.1,40.9,34.1,83,62,25,31.26,30.10,6,1,6,0.00
2012-11-27,80.3,62.3,49.3,63.6,54.0,44.0,85,75,56,30.88,30.39,13,2,13,0.00
2012-11-28,59.2,54.7,50.6,53.7,50.5,46.0,89,86,82,31.12,30.88,10,4,10,0.00
2012-11-29,75.6,59.0,46.6,59.8,51.7,43.3,91,78,55,31.22,30.82,16,5,16,0.00
2012-11-30,80.1,63.1,52.2,65.3,55.8,49.1,91,78,51,30.84,28.56,8,2,8,0.00
2012-12-1,68.4,62.3,57.6,62.6,58.2,53.9,90,86,79,28.93,25.82,6,2,6,0.00
2012-12-2,85.5,70.5,55.1,66.2,60.1,52.5,91,72,48,27.41,25.64,10,1,10,0.00
2012-12-3,68.8,63.7,59.0,64.4,60.2,56.2,90,89,84,29.23,20.33,6,1,6,0.00
2012-12-4,84.2,66.0,55.1,68.3,56.9,52.5,93,75,45,28.95,25.29,5,1,5,0.00
2012-12-5,78.3,64.1,53.6,65.2,56.6,49.7,89,78,53,28.29,25.57,8,2,8,0.00
2012-12-6,77.2,64.0,60.1,68.3,59.9,56.6,90,87,71,28.20,26.78,15,5,15,0.00
2012-12-7,63.7,60.7,57.1,59.7,57.6,54.2,92,89,86,30.35,20.19,14,3,14,0.00
2012-12-8,75.1,61.1,56.7,66.0,57.7,53.6,92,88,69,30.46,21.26,5,1,5,0.00
2012-12-9,76.1,63.4,56.2,71.7,60.5,53.8,93,90,84,29.31,24.03,6,2,6,0.00
2012-12-10,82.4,67.7,60.1,72.2,63.2,58.2,94,86,63,28.75,23.61,9,3,9,0.00
2012-12-13,53.1,49.9,47.5,51.1,47.3,45.1,93,91,88,29.91,28.78,14,6,14,0.00
2012-12-14,56.5,53.5,47.5,50.6,49.1,45.4,92,85,79,28.78,28.41,7,2,7,0.00
2012-12-15,73.3,61.3,53.5,64.7,56.3,48.8,91,84,72,28.42,13.10,10,1,10,0.00
2012-12-16,79.4,64.6,54.7,67.9,59.5,52.4,93,84,66,29.71,24.70,8,1,8,0.00
2012-12-17,77.8,69.1,61.4,67.0,62.7,58.5,90,80,66,26.97,21.07,9,2,9,0.00
2012-12-18,65.5,65.3,65.2,62.8,62.5,62.2,91,91,90,15.31,15.31,6,4,6,0.00
2012-12-19,53.3,48.0,42.8,46.3,42.6,38.6,85,82,76,25.42,20.01,3,0,3,0.00
2012-12-20,82.1,65.1,49.9,65.5,57.4,44.7,90,77,57,27.99,20.99,16,4,16,0.00
2012-12-21,61.0,50.9,41.8,50.5,31.0,23.8,70,48,29,29.58,23.83,20,8,20,0.00
2012-12-22,64.6,45.6,34.0,33.1,27.5,22.4,71,51,29,30.15,28.10,11,3,11,0.00
2012-12-23,61.0,45.4,34.9,40.7,34.1,27.9,80,66,35,30.27,28.92,7,0,7,0.00
2012-12-24,71.3,56.6,45.0,55.5,47.9,38.3,87,73,57,29.28,28.17,13,2,13,0.00
2012-12-25,76.0,63.6,55.1,64.9,56.8,49.7,87,79,63,29.38,26.97,8,2,8,0.00
2012-12-26,70.6,61.2,41.8,62.4,52.4,33.9,89,73,53,28.09,26.32,24,10,24,0.00
2012-12-27,63.9,44.7,36.5,43.6,36.0,31.7,83,73,45,28.50,27.43,8,2,8,0.00
2012-12-28,69.5,51.7,37.6,53.6,43.7,33.2,86,75,51,29.58,27.92,5,1,5,0.00
2012-12-29,70.6,60.5,44.5,66.4,53.3,34.9,91,77,57,29.59,28.92,16,8,16,0.00
2012-12-30,63.5,45.7,35.6,40.5,33.4,28.8,79,64,36,30.66,28.89,17,4,17,0.00
2012-12-31,74.7,52.6,39.1,56.2,43.2,32.9,81,71,50,29.76,28.63,9,1,9,0.00
2013-1-1,77.6,67.2,55.4,59.9,55.4,51.7,89,67,52,30.09,29.78,12,4,12,0.00